THY83YT LTFH-LTAJ

Flight info

Callsign THY83YT
Flight time N/A
Altitude 36000
Route ALMU1J ALMUS TKT ENFOR UT243 GEM B36 ARPAG ARPA1Y
Aircraft B738/M-VGDW/C

Departure

Time 2026-04-23 09:30
Airport Samsun-Çarşamba Airport (LTFH)

Arrival

Time N/A
Airport Gaziantep Oğuzeli International Airport (LTAJ)
Time Latitude Longitude Altitude Speed Heading
2026-04-23 08:55 41.25904 36.55484 24 ft 0 kts 221°
2026-04-23 09:12 41.25908 36.55489 28 ft 2 kts 221°
2026-04-23 09:13 41.25920 36.55503 28 ft 2 kts 239°
2026-04-23 09:13 41.25929 36.55521 30 ft 2 kts 226°
2026-04-23 09:13 41.25942 36.55533 27 ft 2 kts 175°
2026-04-23 09:13 41.25955 36.55523 28 ft 2 kts 123°
2026-04-23 09:14 41.25965 36.55507 29 ft 0 kts 136°
2026-04-23 09:18 41.25964 36.55509 26 ft 2 kts 135°
2026-04-23 09:19 41.25940 36.55541 27 ft 8 kts 135°
2026-04-23 09:19 41.25891 36.55607 24 ft 12 kts 134°
2026-04-23 09:19 41.25876 36.55668 24 ft 5 kts 55°
2026-04-23 09:19 41.25900 36.55699 26 ft 5 kts 44°
2026-04-23 09:20 41.25938 36.55747 28 ft 10 kts 43°
2026-04-23 09:20 41.26002 36.55828 24 ft 15 kts 46°
2026-04-23 09:20 41.25989 36.55959 24 ft 18 kts 133°
2026-04-23 09:20 41.25888 36.56099 22 ft 24 kts 134°
2026-04-23 09:21 41.25767 36.56267 26 ft 25 kts 133°
2026-04-23 09:21 41.25648 36.56433 28 ft 25 kts 134°
2026-04-23 09:21 41.25527 36.56602 23 ft 25 kts 133°
2026-04-23 09:21 41.25405 36.56772 23 ft 26 kts 133°
2026-04-23 09:22 41.25286 36.56937 22 ft 25 kts 134°
2026-04-23 09:22 41.25165 36.57107 24 ft 26 kts 134°
2026-04-23 09:22 41.25042 36.57277 26 ft 26 kts 133°
2026-04-23 09:22 41.24920 36.57449 28 ft 26 kts 133°
2026-04-23 09:23 41.24796 36.57620 22 ft 25 kts 134°
2026-04-23 09:23 41.24681 36.57780 22 ft 23 kts 134°
2026-04-23 09:23 41.24569 36.57908 22 ft 16 kts 156°
2026-04-23 09:23 41.24497 36.57948 24 ft 8 kts 111°
2026-04-23 09:24 41.24517 36.57983 25 ft 5 kts 22°
2026-04-23 09:24 41.24546 36.57970 24 ft 5 kts 318°
2026-04-23 09:24 41.24550 36.57963 24 ft 0 kts 313°
2026-04-23 09:29 41.24632 36.57848 21 ft 50 kts 314°
2026-04-23 09:30 41.25040 36.57281 25 ft 118 kts 314°
2026-04-23 09:30 41.25733 36.56298 66 ft 168 kts 310°
2026-04-23 09:30 41.26492 36.55159 895 ft 162 kts 310°
2026-04-23 09:30 41.27276 36.54005 1565 ft 178 kts 307°
2026-04-23 09:31 41.28084 36.52695 2240 ft 193 kts 306°
2026-04-23 09:31 41.28896 36.51134 2579 ft 214 kts 288°
2026-04-23 09:31 41.28861 36.49210 3411 ft 199 kts 250°
2026-04-23 09:31 41.28099 36.47827 4558 ft 190 kts 214°
2026-04-23 09:32 41.26949 36.46795 4941 ft 220 kts 211°
2026-04-23 09:32 41.25476 36.45658 4794 ft 268 kts 206°
2026-04-23 09:32 41.23771 36.44593 5726 ft 261 kts 200°
2026-04-23 09:32 41.22149 36.44142 7544 ft 217 kts 182°
2026-04-23 09:33 41.20679 36.44448 8403 ft 228 kts 158°
2026-04-23 09:33 41.19215 36.45712 8158 ft 277 kts 138°
2026-04-23 09:33 41.17856 36.47648 8438 ft 289 kts 131°
2026-04-23 09:33 41.16616 36.49718 9419 ft 290 kts 129°
2026-04-23 09:34 41.15402 36.51940 9816 ft 308 kts 128°
2026-04-23 09:34 41.14227 36.54312 10605 ft 314 kts 124°
2026-04-23 09:34 41.13094 36.56923 10793 ft 338 kts 124°
2026-04-23 09:34 41.11887 36.59711 11013 ft 359 kts 122°
2026-04-23 09:35 41.10714 36.62689 11468 ft 369 kts 121°
2026-04-23 09:35 41.09406 36.65612 12043 ft 366 kts 136°
2026-04-23 09:35 41.07481 36.67666 12879 ft 350 kts 155°
2026-04-23 09:35 41.05310 36.69102 13595 ft 349 kts 161°
2026-04-23 09:36 41.03029 36.70183 14062 ft 347 kts 175°
2026-04-23 09:36 41.00673 36.70403 14673 ft 343 kts 184°
2026-04-23 09:36 40.98280 36.70330 15285 ft 347 kts 187°
2026-04-23 09:36 40.95873 36.69952 15832 ft 349 kts 193°
2026-04-23 09:37 40.93481 36.69318 16440 ft 352 kts 196°
2026-04-23 09:37 40.91083 36.68577 17041 ft 356 kts 197°
2026-04-23 09:37 40.88655 36.67803 17604 ft 361 kts 197°
2026-04-23 09:37 40.86191 36.67018 18105 ft 367 kts 198°
2026-04-23 09:38 40.83694 36.66251 18629 ft 371 kts 197°
2026-04-23 09:38 40.81170 36.65517 19207 ft 371 kts 197°
2026-04-23 09:38 40.78749 36.64540 19693 ft 367 kts 206°
2026-04-23 09:38 40.76409 36.63215 20363 ft 366 kts 208°
2026-04-23 09:39 40.74080 36.61839 20981 ft 368 kts 208°
2026-04-23 09:39 40.71744 36.60443 21599 ft 370 kts 208°
2026-04-23 09:39 40.69391 36.59038 22194 ft 372 kts 208°
2026-04-23 09:39 40.67021 36.57630 22765 ft 374 kts 209°
2026-04-23 09:40 40.64642 36.56224 23263 ft 376 kts 208°
2026-04-23 09:40 40.62250 36.54815 23671 ft 378 kts 209°
2026-04-23 09:40 40.59843 36.53402 24014 ft 380 kts 209°
2026-04-23 09:40 40.57449 36.52000 24318 ft 384 kts 209°
2026-04-23 09:41 40.55001 36.50561 24629 ft 387 kts 209°
2026-04-23 09:41 40.52538 36.49114 24985 ft 389 kts 209°
2026-04-23 09:41 40.50064 36.47662 25356 ft 391 kts 209°
2026-04-23 09:41 40.47574 36.46202 25699 ft 393 kts 209°
2026-04-23 09:42 40.45068 36.44731 26015 ft 396 kts 209°
2026-04-23 09:42 40.42547 36.43247 26355 ft 398 kts 209°
2026-04-23 09:42 40.40010 36.41750 26690 ft 401 kts 209°
2026-04-23 09:42 40.37459 36.40258 27013 ft 404 kts 209°
2026-04-23 09:43 40.34913 36.38784 27291 ft 406 kts 209°
2026-04-23 09:43 40.32285 36.37368 27623 ft 412 kts 205°
2026-04-23 09:43 40.29495 36.36367 27919 ft 423 kts 197°
2026-04-23 09:43 40.26565 36.35762 28147 ft 428 kts 195°
2026-04-23 09:44 40.23603 36.35197 28418 ft 431 kts 195°
2026-04-23 09:44 40.20633 36.34624 28726 ft 432 kts 195°
2026-04-23 09:44 40.17655 36.34027 29008 ft 433 kts 195°
2026-04-23 09:44 40.14679 36.33409 29372 ft 432 kts 196°
2026-04-23 09:45 40.11716 36.32780 29781 ft 431 kts 196°
2026-04-23 09:45 40.10789 36.32581 29906 ft 430 kts 196°